This is the latest recevied weather packets stored in our database for station/object AB1AU. If no packets are shown the sender has not sent any weather packets the latest 10 day(s).
| Time | Temp. | Humidity | Pressure | Rain* | Wind** | Luminosity | Snow |
|---|---|---|---|---|---|---|---|
| 1777470872 | 8.89° C | 78% | 1020.2 hPa | 0 mm | - | 170 W/m² | - |
| 1777470569 | 8.89° C | 78% | 1020.2 hPa | 0 mm | - | 138 W/m² | - |
| 1777470265 | 8.89° C | 79% | 1020.2 hPa | 0 mm | - | 119 W/m² | - |
| 1777469961 | 8.89° C | 79% | 1020.3 hPa | 0 mm | - | 115 W/m² | - |
| 1777469657 | 8.89° C | 79% | 1020.5 hPa | 0 mm | - | 138 W/m² | - |
| 1777469353 | 8.89° C | 80% | 1020.5 hPa | 0 mm | - | 138 W/m² | - |
| 1777469049 | 8.89° C | 80% | 1020.7 hPa | 0 mm | - | 104 W/m² | - |
| 1777468744 | 8.89° C | 79% | 1020.3 hPa | 0 mm | - | 114 W/m² | - |
| 1777468440 | 8.89° C | 79% | 1020.3 hPa | 0 mm | - | 149 W/m² | - |
| 1777468136 | 8.89° C | 78% | 1020.5 hPa | 0 mm | - | 143 W/m² | - |
| 1777467833 | 8.89° C | 77% | 1020.5 hPa | 0 mm | - | 98 W/m² | - |
| 1777467528 | 8.89° C | 76% | 1020.3 hPa | 0 mm | - | 81 W/m² | - |
| 1777467223 | 8.89° C | 76% | 1020.4 hPa | 0 mm | - | 77 W/m² | - |
| 1777466920 | 8.89° C | 76% | 1020.6 hPa | 0 mm | - | 58 W/m² | - |
| 1777466618 | 8.89° C | 76% | 1020.5 hPa | 0 mm | - | 77 W/m² | - |
| 1777466314 | 8.89° C | 76% | 1020.4 hPa | 0 mm | - | 78 W/m² | - |
| 1777466011 | 8.89° C | 76% | 1020.5 hPa | 0 mm | - | 62 W/m² | - |
| 1777465707 | 8.89° C | 75% | 1020.2 hPa | 0 mm | - | 35 W/m² | - |
| 1777465403 | 8.89° C | 75% | 1020.3 hPa | 0 mm | - | 33 W/m² | - |
| 1777465102 | 8.89° C | 74% | 1020.3 hPa | 0 mm | - | 29 W/m² | - |
| 1777464798 | 8.89° C | 74% | 1020.4 hPa | 0 mm | - | 46 W/m² | - |
| 1777464493 | 8.89° C | 74% | 1020.3 hPa | 0 mm | - | 49 W/m² | - |
| 1777464190 | 8.89° C | 73% | 1020.3 hPa | 0 mm | - | 58 W/m² | - |
| 1777463889 | 8.89° C | 72% | 1020.2 hPa | 0 mm | - | 82 W/m² | - |
| 1777463586 | 8.89° C | 71% | 1020.1 hPa | 0 mm | - | 67 W/m² | - |
* Rain latest hour (hover to see other rain measurements)
** Current wind speed in m/s (hover to see current wind gust speed)